Home   Weather   Köniz   Past weeks

Flag for Switzerland Past Weather in Köniz, Bern, Switzerland — Yesterday and Last 2 Weeks

Now
77 °F

Passing clouds.


Feels Like: 79 °F
Forecast: 57 / 81 °F
Wind: 3 mph from North

Location: Bern / Belp

Current Time: Jul 21, 2017 at 1:06:35 pm

Latest Report: Jul 21, 2017 at 12:20 pm


Visibility: N/A

Pressure: 29.92 "Hg (28.00 "Hg at 579m altitude)

Humidity: 57%

Dew Point: 61 °F

Location of KönizLocation

Past Weather in Köniz — Graph

°F

Köniz Temperature Yesterday

Maximum temperature yesterday: 82 °F (at 5:50 pm)
Minimum temperature yesterday: 63 °F (at 6:20 am)
Average temperature yesterday: 70 °F

High & Low Weather Summary for the Past Weeks

 TemperatureHumidityPressure
High91 °F (Jul 8, 3:20 pm)100% (Jul 10, 12:20 am)30.30 "Hg (Jul 10, 12:20 am)
Low48 °F (Jul 16, 3:20 am)22% (Jul 6, 3:50 pm)29.86 "Hg (Jul 10, 7:50 pm)
Average69 °F71%30.07 "Hg
* Reported Jul 6 11:50 am — Jul 21 11:50 am, Köniz. Weather by CustomWeather, © 2017

Note: Actual official high and low records may vary slightly from our data, if they occured in-between our weather recording intervals... More about our weather records

Advertising

Köniz Weather History for the Previous 24 Hours

Scroll right to see more
 ConditionsComfort  
Time TempWeatherWind HumidityBarometerVisibility
11:50 am
Fri, Jul 21
77 °FPassing clouds.3 mph61%29.92 "HgN/A
11:20 am75 °FPassing clouds.5 mph61%29.95 "HgN/A
10:50 am75 °FPassing clouds.2 mph61%29.95 "HgN/A
10:20 am73 °FPassing clouds.6 mph65%29.95 "HgN/A
9:50 am73 °FPassing clouds.5 mph69%29.95 "HgN/A
9:20 am81 °FPassing clouds.8 mph42%29.95 "HgN/A
8:50 am68 °FPassing clouds.3 mph78%29.98 "HgN/A
8:20 am66 °FPassing clouds.5 mph83%29.98 "HgN/A
7:50 am64 °FPassing clouds.6 mph88%29.98 "HgN/A
7:20 am61 °FPassing clouds.3 mph100%29.98 "HgN/A
6:50 am59 °FPassing clouds.3 mph100%29.98 "HgN/A
6:20 am57 °FPassing clouds.5 mph100%29.98 "HgN/A
5:50 am59 °FPartly cloudy.3 mph94%29.98 "HgN/A
5:20 am59 °FCool.3 mph100%29.98 "HgN/A
4:50 am59 °FPassing clouds.2 mph100%29.98 "HgN/A
4:20 am61 °FPassing clouds.2 mph94%29.98 "HgN/A
3:50 am61 °FPartly cloudy.3 mph94%29.98 "HgN/A
3:20 am61 °FPassing clouds.6 mph94%29.98 "HgN/A
2:50 am63 °FPartly cloudy.2 mph88%29.98 "HgN/A
2:20 am64 °FClear.3 mph83%30.01 "Hg10 mi
1:50 am64 °FMild.5 mph88%30.01 "HgN/A
1:20 am66 °FPassing clouds.5 mph83%30.01 "HgN/A
12:50 am68 °FThunderstorms. Mostly cloudy.2 mph73%30.01 "HgN/A
12:20 am68 °FThundershowers. Passing clouds.5 mph78%30.01 "HgN/A
11:50 pm
Thu, Jul 20
66 °FThundershowers. Passing clouds.1 mph83%30.01 "HgN/A
11:20 pm68 °FPassing clouds.1 mph78%29.98 "HgN/A
10:50 pm68 °FPassing clouds.1 mph78%29.98 "HgN/A
10:20 pm70 °FPassing clouds.2 mph73%29.98 "HgN/A
9:50 pm73 °FPassing clouds.2 mph61%29.98 "HgN/A
9:20 pm73 °FPassing clouds.2 mph61%29.98 "HgN/A
8:50 pm75 °FScattered clouds.2 mph54%29.95 "HgN/A
7:50 pm77 °FScattered clouds.8 mph51%29.95 "HgN/A
7:20 pm79 °FPartly sunny.8 mph45%29.95 "HgN/A
6:50 pm81 °FScattered clouds.8 mph42%29.92 "HgN/A
6:20 pm81 °FPassing clouds.9 mph45%29.95 "HgN/A
5:50 pm82 °FPassing clouds.7 mph42%29.95 "HgN/A
5:20 pm81 °FPassing clouds.7 mph45%29.95 "HgN/A
4:50 pm81 °FPassing clouds.9 mph42%29.95 "HgN/A
4:20 pm81 °FScattered clouds.8 mph42%29.95 "HgN/A
3:50 pm81 °FScattered clouds.7 mph42%29.95 "HgN/A
3:20 pm81 °FScattered clouds.7 mph39%29.95 "HgN/A
2:50 pm79 °FScattered clouds.6 mph48%29.95 "HgN/A
1:50 pm77 °FPassing clouds.2 mph54%29.98 "HgN/A
1:20 pm73 °FScattered clouds.2 mph65%29.98 "HgN/A
Weather by CustomWeather, © 2017

See weather overviewHow to use our weather pages